Regional Weather Roundup
Issued by NWS

Home | Current Version | Previous Version | Text Only | Print | Product List | Glossary Off
Versions: 1 2 3 4 5 6 7 8 9 10 11 12 13 14 15 16 17 18 19 20 21 22 23 24 25 26 27 28 29 30 31 32 33 34 35 36 37 38 39 40 41 42 43 44 45 46 47 48 49 50

000
ASUS43 KDTX 242010
RWRMI
MICHIGAN HOURLY REGIONAL WEATHER ROUNDUP
NATIONAL WEATHER SERVICE DETROIT/PONTIAC MI
400 PM EDT FRI OCT 24 2014

NOTE: "FAIR" INDICATES FEW OR NO CLOUDS BELOW 12,000 FEET WITH NO
SIGNIFICANT WEATHER AND/OR OBSTRUCTION TO VISIBILITY.

MIZ047>049-052>055-059>063-066>070-074>076-081>083-242100-
SOUTHEAST LOWER MICHIGAN

CITY           SKY/WX    TMP DP  RH WIND       PRES   REMARKS
ADRIAN         CLOUDY    57  45  64 SW7       30.01F
ALMA           CLOUDY    60  49  66 SW6       29.96F
ANN ARBOR      CLOUDY    60  43  53 SW8       29.99F
BAD AXE        MOSUNNY   60  47  62 W3        29.96S
DETROIT CITY   MOSUNNY   63  43  48 SW12      29.98F
DETROIT        PTSUNNY   60  44  55 S10       29.99F
FLINT          PTSUNNY   63  47  55 SW9       29.98R
GROSSE ILE     PTSUNNY   61  48  63 S7        29.98F
HILLSDALE      CLOUDY    59  47  64 S5        30.00S
HOWELL         CLOUDY    59  46  62 SW8       29.98S

CITY           SKY/WX    TMP DP  RH WIND       PRES   REMARKS
JACKSON        CLOUDY    59  47  64 W6        30.00R
LAMBERTVILLE   CLOUDY    61  43  51 S6        30.00F
LANSING        CLOUDY    60  48  64 SW6       29.98F
LAPEER         NOT AVBL
MASON          CLOUDY    59  48  66 SW5       29.99R
MONROE         CLOUDY    61  45  55 SW8       29.98F
MT. CLEMENS    MOSUNNY   62  43  50 SW8       29.95F
PONTIAC        MOSUNNY   59  43  55 SW8       29.97F
PORT HOPE        N/A     57  45  64 VRB5      29.95F
PORT HURON     PTSUNNY   61  43  51 W3        29.97F
TRI CITIES     CLOUDY    60  49  66 W10       29.97F
YPSILANTI      CLOUDY    64  43  46 S13       29.99F
$$
MIZ043>046-050>051-056>058-064>065-071>073-077>080-242100-
SOUTHWEST LOWER MICHIGAN

CITY           SKY/WX    TMP DP  RH WIND       PRES   REMARKS
BATTLE CREEK   PTSUNNY   63  47  55 W14       29.99F
BENTON HARBOR  PTSUNNY   58  50  75 W9        30.00F
BIG RAPIDS     CLOUDY    55  54  97 SW5       29.96F
COLDWATER      CLOUDY    61  51  68 SW6       30.00R
HOLLAND        PTSUNNY   60  50  69 W8        30.00S
GRAND RAPIDS   PTSUNNY   60  50  69 W10       29.99S
KALAMAZOO      PTSUNNY   62  48  60 SW6       29.99F
MARSHALL       CLOUDY    59  48  67 SW7       29.98F
MUSKEGON       CLOUDY    55  49  80 SW10      29.98F
$$
MIZ016>042-242100-
NORTHERN LOWER MICHIGAN

CITY           SKY/WX    TMP DP  RH WIND       PRES   REMARKS
ALPENA         CLOUDY    56  47  71 W7        29.93F
BEAVER ISLAND  CLOUDY    52  48  86 SW9       29.93S
BELLAIRE       CLOUDY    53  49  84 S3        29.94F
CADILLAC       CLOUDY    52  49  92 SW7       29.94F
CHARLEVOIX     CLOUDY    54  50  87 SW5       29.96F
FRANKFORT      CLOUDY    52  47  83 S8        29.94F
GAYLORD        CLOUDY    51  47  86 W8        29.94F
GRAYLING       CLOUDY    54  50  87 W6        29.96S
HARBOR SPRINGS CLOUDY    54  49  85 W5        29.93F
HOUGHTON LAKE  CLOUDY    51  48  89 W6        29.96F FOG
OSCODA         CLOUDY    56  47  73 SW10      29.94S
PELLSTON       CLOUDY    54  47  77 W8        29.93F
TRAVERSE CITY  CLOUDY    54  48  80 SW7       29.93F
$$
MIZ007>008-015-242100-
EASTERN UPPER MICHIGAN

CITY           SKY/WX    TMP DP  RH WIND       PRES   REMARKS
KINROSS        CLOUDY    54  48  82 SW6       29.91S
MACKINAC ISLAN CLOUDY    52  49  90 W10G16    29.92F
NEWBERRY       CLOUDY    49  47  91 S14G22    29.89F
S. S. MARIE    CLOUDY    53  47  79 SW6       29.90F
$$
MIZ004>006-011>014-085-242100-
CENTRAL UPPER MICHIGAN

CITY           SKY/WX    TMP DP  RH WIND       PRES   REMARKS
MANISTIQUE     CLOUDY    49  47  94 SW8       29.90F
ESCANABA       CLOUDY    50  45  81 S5        29.90F
MENOMINEE      CLOUDY    54  46  76 SW9       29.91S
SAWYER-GWINN   SUNNY     57  48  72 S10       29.86F
$$
MIZ001>003-009>011-084-242100-
WESTERN UPPER MICHIGAN

CITY           SKY/WX    TMP DP  RH WIND       PRES   REMARKS
IRON MOUNTAIN  SUNNY     60  48  64 S7        29.87F
HOUGHTON       CLOUDY    64  46  52 S7        29.79F
COPPER HARBOR    N/A     56  48  74 SW9       29.78F
IRONWOOD       SUNNY     66  46  48 SW14G24   29.77F
$$

ABBREVIATIONS USED IN REMARKS
   TC - TEMPERATURE IN CELSIUS
  WCI - WIND CHILL INDEX
   HX - HEAT INDEX
  VSB - VISIBILITY




USA.gov is the U.S. government's official web portal to all federal, state and local government web resources and services.